User: anonymous   Login
Location: Quebec
(46.8000°N, 71.2500°W)
Time: 06:00:55
(UTC-04:00)
Language:

Vanguard 1 Rocket - Orbit

View from above orbital plane
View from above orbital plane
View from above satellite
View from above satellite

Ground track
Ground track

The orbit data is extracted from the following two-line orbital elements,

1    16U 58002A   18171.92003278 +.00000120 +00000-0 +19512-3 0  9995
2    16 034.2624 095.4859 2025240 050.1197 326.0708 10.48657512382455
Epoch (UTC): 20 June 2018 22:04:50
Eccentricity: 0.2025240
inclination: 34.2624°
perigee height: 653 km
apogee height: 4224 km
right ascension of ascending node: 95.4859°
argument of perigee: 50.1197°
revolutions per day: 10.48657512
mean anomaly at epoch: 326.0708°
orbit number at epoch: 38245

The dashed part of the orbit path shows where the satellite is in the earth's shadow,  

DLR